KUIPER-00230

Last updated on Sun Apr 12 2026 00:02:10 GMT+0000 (Coordinated Universal Time)

1 68579U 26072G 26101.50002315 .00054510 00000+0 14090-2 0 9998 2 68579 51.8763 139.3619 0001735 89.2347 200.2144 15.38573725 1301
UTC large
Height (km)
Speed (km/s)
/
Latitude / Longitude
Inclination (degrees)
Orbital Period (minutes)
Azimuth
Elevation
Range (km)
Doppler Factor

Next 0 passes for location: London (51.5072 / 0.1276)

Sorry there are no passes over London.
KUIPER-00230